TimeCST,TemperatureF,Dew PointF,Humidity,Sea Level PressureIn,VisibilityMPH,Wind Direction,Wind SpeedMPH,Gust SpeedMPH,PrecipitationIn,Events,Conditions,WindDirDegrees,DateUTC
12:13 AM,21.2,17.6,86,29.54,10.0,SSE,11.5,-,N/A,,Overcast,160,2014-01-18 06:13:00
12:33 AM,23.0,17.6,80,29.53,10.0,SSE,9.2,-,N/A,,Overcast,160,2014-01-18 06:33:00
12:53 AM,24.8,17.6,74,29.51,10.0,South,9.2,-,N/A,Snow,Light Snow,170,2014-01-18 06:53:00
1:13 AM,24.8,19.4,80,29.49,1.5,South,9.2,-,N/A,Snow,Light Snow,170,2014-01-18 07:13:00
1:33 AM,24.8,19.4,80,29.47,2.0,South,6.9,-,N/A,Snow,Light Snow,170,2014-01-18 07:33:00
1:53 AM,24.8,21.2,86,29.45,2.0,South,8.1,-,N/A,Snow,Light Snow,180,2014-01-18 07:53:00
2:14 AM,26.6,21.2,80,29.45,7.0,SSW,4.6,-,N/A,Snow,Light Snow,210,2014-01-18 08:14:00
2:33 AM,26.6,21.2,80,29.44,5.0,SSW,3.5,-,N/A,Snow,Light Snow,200,2014-01-18 08:33:00
2:53 AM,26.6,24.8,93,29.43,1.8,WSW,5.8,-,N/A,Snow,Light Snow,240,2014-01-18 08:53:00
3:14 AM,28.4,26.6,93,29.43,1.5,West,8.1,-,N/A,Snow,Light Snow,270,2014-01-18 09:14:00
3:33 AM,32.0,30.2,93,29.42,2.0,WNW,10.4,-,N/A,Snow,Light Snow,300,2014-01-18 09:33:00
3:53 AM,33.8,32.0,93,29.41,2.5,WNW,13.8,-,N/A,Snow,Light Snow,290,2014-01-18 09:53:00
4:13 AM,33.8,32.0,93,29.41,5.0,WNW,15.0,-,N/A,Snow,Light Snow,290,2014-01-18 10:13:00
4:33 AM,33.8,32.0,93,29.41,7.0,West,17.3,-,N/A,Snow,Light Snow,280,2014-01-18 10:33:00
4:53 AM,35.6,33.8,93,29.40,10.0,WNW,16.1,-,N/A,,Overcast,300,2014-01-18 10:53:00
5:13 AM,33.8,30.2,87,29.41,1.8,NNW,15.0,19.6,N/A,Snow,Light Snow,340,2014-01-18 11:13:00
5:33 AM,33.8,30.2,87,29.42,2.5,North,13.8,-,N/A,Snow,Light Snow,350,2014-01-18 11:33:00
5:53 AM,32.0,30.2,93,29.43,2.5,NNW,11.5,-,N/A,Snow,Light Snow,340,2014-01-18 11:53:00
6:13 AM,32.0,30.2,93,29.44,4.0,North,17.3,21.9,N/A,Snow,Light Snow,350,2014-01-18 12:13:00
6:33 AM,28.4,26.6,93,29.47,7.0,North,16.1,-,N/A,,Overcast,360,2014-01-18 12:33:00
6:53 AM,26.6,24.8,93,29.49,10.0,North,12.7,-,N/A,,Overcast,10,2014-01-18 12:53:00
7:13 AM,21.2,19.4,93,29.52,7.0,NE,19.6,28.8,N/A,,Overcast,40,2014-01-18 13:13:00
7:33 AM,19.4,15.8,86,29.57,5.0,NE,21.9,-,N/A,,Overcast,40,2014-01-18 13:33:00
7:53 AM,17.6,15.8,93,29.61,5.0,NNE,23.0,-,N/A,,Overcast,30,2014-01-18 13:53:00
8:13 AM,15.8,12.2,86,29.65,5.0,NNE,21.9,27.6,N/A,,Overcast,30,2014-01-18 14:13:00
8:33 AM,15.8,12.2,86,29.69,10.0,North,19.6,25.3,N/A,,Overcast,10,2014-01-18 14:33:00
8:53 AM,15.8,10.4,79,29.72,10.0,North,19.6,-,N/A,,Overcast,10,2014-01-18 14:53:00
9:13 AM,15.8,10.4,79,29.75,10.0,NNE,17.3,-,N/A,,Overcast,20,2014-01-18 15:13:00
9:33 AM,15.8,10.4,79,29.79,10.0,North,16.1,-,N/A,,Overcast,350,2014-01-18 15:33:00
9:53 AM,15.8,10.4,79,29.82,10.0,North,17.3,-,N/A,,Overcast,350,2014-01-18 15:53:00
10:13 AM,15.8,10.4,79,29.86,3.0,North,19.6,-,N/A,,Haze,350,2014-01-18 16:13:00
10:33 AM,15.8,10.4,79,29.88,4.0,NNW,19.6,-,N/A,,Haze,340,2014-01-18 16:33:00
10:53 AM,15.8,10.4,79,29.89,5.0,North,18.4,24.2,N/A,,Haze,350,2014-01-18 16:53:00
11:14 AM,17.6,10.4,73,29.91,5.0,North,17.3,-,N/A,,Haze,350,2014-01-18 17:14:00
11:33 AM,15.8,10.4,79,29.93,4.0,NNW,19.6,25.3,N/A,,Haze,340,2014-01-18 17:33:00
11:53 AM,17.6,10.4,73,29.93,5.0,North,17.3,-,N/A,,Haze,350,2014-01-18 17:53:00
12:13 PM,17.6,10.4,73,29.92,10.0,North,16.1,-,N/A,,Clear,350,2014-01-18 18:13:00
12:33 PM,17.6,10.4,73,29.95,10.0,NNW,16.1,-,N/A,,Clear,330,2014-01-18 18:33:00
12:53 PM,17.6,10.4,73,29.94,10.0,NNW,10.4,-,N/A,,Clear,340,2014-01-18 18:53:00
1:13 PM,19.4,10.4,68,29.93,10.0,NNW,12.7,-,N/A,,Clear,340,2014-01-18 19:13:00
1:33 PM,17.6,10.4,73,29.94,10.0,NNW,11.5,-,N/A,,Clear,330,2014-01-18 19:33:00
1:53 PM,17.6,10.4,73,29.96,10.0,NW,15.0,-,N/A,,Clear,320,2014-01-18 19:53:00
2:13 PM,17.6,10.4,73,29.96,10.0,NW,15.0,18.4,N/A,,Clear,320,2014-01-18 20:13:00
2:33 PM,17.6,10.4,73,29.98,10.0,NW,16.1,20.7,N/A,,Clear,320,2014-01-18 20:33:00
2:53 PM,17.6,10.4,73,29.98,10.0,NW,17.3,-,N/A,,Clear,310,2014-01-18 20:53:00
3:14 PM,17.6,10.4,73,29.99,10.0,NW,15.0,-,N/A,,Clear,310,2014-01-18 21:14:00
3:34 PM,17.6,12.2,79,30.00,10.0,WNW,12.7,16.1,N/A,,Clear,300,2014-01-18 21:34:00
3:53 PM,17.6,12.2,79,30.00,10.0,NW,15.0,-,N/A,,Clear,310,2014-01-18 21:53:00
4:13 PM,17.6,12.2,79,29.99,10.0,NW,9.2,-,N/A,,Clear,310,2014-01-18 22:13:00
4:33 PM,17.6,12.2,79,29.99,10.0,NW,10.4,-,N/A,,Clear,320,2014-01-18 22:33:00
4:54 PM,17.6,12.2,79,29.99,10.0,NW,8.1,-,N/A,,Clear,310,2014-01-18 22:54:00
5:13 PM,15.8,12.2,86,29.98,10.0,WNW,6.9,-,N/A,,Clear,290,2014-01-18 23:13:00
5:33 PM,15.8,10.4,79,29.98,10.0,West,4.6,-,N/A,,Clear,280,2014-01-18 23:33:00
5:53 PM,15.8,10.4,79,29.98,10.0,West,4.6,-,N/A,,Clear,260,2014-01-18 23:53:00
6:13 PM,15.8,12.2,86,29.96,10.0,WSW,8.1,-,N/A,,Clear,240,2014-01-19 00:13:00
6:33 PM,17.6,14.0,86,29.96,10.0,WSW,6.9,-,N/A,,Clear,240,2014-01-19 00:33:00
6:53 PM,17.6,14.0,86,29.95,10.0,WSW,6.9,-,N/A,,Scattered Clouds,240,2014-01-19 00:53:00
7:13 PM,17.6,14.0,86,29.93,10.0,SW,9.2,-,N/A,,Clear,230,2014-01-19 01:13:00
7:34 PM,17.6,15.8,93,29.90,10.0,WSW,8.1,-,N/A,,Clear,240,2014-01-19 01:34:00
7:53 PM,19.4,15.8,86,29.89,10.0,SW,8.1,-,N/A,,Mostly Cloudy,230,2014-01-19 01:53:00
8:13 PM,19.4,17.6,93,29.88,10.0,SW,8.1,-,N/A,,Overcast,220,2014-01-19 02:13:00
8:33 PM,21.2,17.6,86,29.87,10.0,SSW,4.6,-,N/A,,Mostly Cloudy,200,2014-01-19 02:33:00
8:54 PM,21.2,17.6,86,29.83,10.0,SSW,5.8,-,N/A,,Scattered Clouds,200,2014-01-19 02:54:00
9:13 PM,21.2,17.6,86,29.81,10.0,SSW,6.9,-,N/A,,Clear,210,2014-01-19 03:13:00
9:33 PM,21.2,17.6,86,29.78,10.0,SSW,10.4,-,N/A,,Clear,200,2014-01-19 03:33:00
9:53 PM,23.0,19.4,86,29.76,10.0,SW,15.0,-,N/A,,Clear,220,2014-01-19 03:53:00
10:13 PM,24.8,19.4,80,29.76,10.0,SW,11.5,-,N/A,,Clear,220,2014-01-19 04:13:00
10:33 PM,24.8,19.4,80,29.75,10.0,SW,10.4,-,N/A,,Clear,220,2014-01-19 04:33:00
10:54 PM,24.8,21.2,86,29.73,10.0,SW,10.4,-,N/A,,Clear,220,2014-01-19 04:54:00
11:13 PM,26.6,21.2,80,29.72,10.0,SW,8.1,-,N/A,,Clear,220,2014-01-19 05:13:00
11:34 PM,26.6,21.2,80,29.70,10.0,WSW,11.5,-,N/A,,Clear,240,2014-01-19 05:34:00
11:54 PM,26.6,23.0,86,29.69,10.0,WSW,11.5,-,N/A,,Clear,240,2014-01-19 05:54:00